TimeCDT,TemperatureF,Dew PointF,Humidity,Sea Level PressureIn,VisibilityMPH,Wind Direction,Wind SpeedMPH,Gust SpeedMPH,PrecipitationIn,Events,Conditions,WindDirDegrees,DateUTC
1:47 AM,66.9,64.9,93,29.92,2.0,WNW,5.8,-,0.13,Rain,Light Rain,300,2014-05-13 06:47:00
1:50 AM,66.2,64.4,94,29.93,3.0,WSW,3.5,-,0.13,Rain,Light Rain,240,2014-05-13 06:50:00
1:54 AM,66.9,64.9,93,29.92,2.0,West,5.8,-,0.26,Rain,Heavy Rain,270,2014-05-13 06:54:00
1:56 AM,66.9,64.9,93,29.93,1.0,West,8.1,-,0.11,Rain,Heavy Rain,280,2014-05-13 06:56:00
1:59 AM,66.9,64.9,93,29.92,0.8,WNW,5.8,-,0.18,Rain,Heavy Rain,300,2014-05-13 06:59:00
2:12 AM,66.0,64.9,96,29.92,1.8,Calm,Calm,-,0.36,Rain,Heavy Rain,0,2014-05-13 07:12:00
2:22 AM,66.0,64.9,96,29.92,3.0,Calm,Calm,-,0.41,Rain,Rain,0,2014-05-13 07:22:00
2:29 AM,66.0,64.9,96,29.91,1.8,Calm,Calm,-,0.52,Rain,Heavy Rain,0,2014-05-13 07:29:00
2:39 AM,66.0,64.9,96,29.91,4.0,East,3.5,-,0.53,Rain,Light Rain,100,2014-05-13 07:39:00
2:49 AM,66.2,64.4,94,29.92,9.0,WNW,4.6,-,0.53,,Overcast,290,2014-05-13 07:49:00
2:54 AM,66.0,64.9,96,29.90,9.0,West,3.5,-,0.53,,Overcast,270,2014-05-13 07:54:00
3:27 AM,66.0,64.9,96,29.93,10.0,WSW,5.8,-,N/A,,Overcast,240,2014-05-13 08:27:00
3:54 AM,66.0,64.0,93,29.89,10.0,NW,6.9,-,N/A,,Overcast,310,2014-05-13 08:54:00
4:06 AM,66.0,64.0,93,29.91,10.0,West,4.6,-,N/A,,Mostly Cloudy,260,2014-05-13 09:06:00
4:54 AM,66.0,64.0,93,29.89,10.0,West,4.6,-,0.01,Rain,Light Rain,280,2014-05-13 09:54:00
5:54 AM,66.0,64.0,93,29.90,10.0,South,5.8,-,0.01,,Mostly Cloudy,190,2014-05-13 10:54:00
6:17 AM,66.0,64.9,96,29.94,10.0,SSW,8.1,-,N/A,,Mostly Cloudy,200,2014-05-13 11:17:00
6:48 AM,66.2,64.4,94,29.95,10.0,South,10.4,-,N/A,,Overcast,180,2014-05-13 11:48:00
6:54 AM,66.9,64.9,93,29.94,10.0,South,8.1,-,N/A,,Overcast,190,2014-05-13 11:54:00
7:13 AM,66.9,64.9,93,29.95,10.0,SSW,8.1,-,N/A,,Overcast,210,2014-05-13 12:13:00
8:54 AM,61.0,57.9,90,29.99,10.0,WNW,15.0,20.7,N/A,,Overcast,300,2014-05-13 13:54:00
9:54 AM,60.1,55.0,83,30.00,10.0,WNW,10.4,-,N/A,,Overcast,290,2014-05-13 14:54:00
11:28 AM,59.0,55.0,87,30.05,10.0,WNW,15.0,-,N/A,,Overcast,290,2014-05-13 16:28:00
11:54 AM,57.9,54.0,87,30.05,8.0,WNW,12.7,-,N/A,,Overcast,290,2014-05-13 16:54:00
12:49 PM,59.0,53.6,82,30.05,10.0,NW,11.5,-,N/A,,Overcast,310,2014-05-13 17:49:00
12:54 PM,57.9,53.1,84,30.05,10.0,NW,12.7,-,N/A,,Overcast,310,2014-05-13 17:54:00
1:54 PM,55.9,52.0,87,30.08,10.0,NW,11.5,-,0.00,Rain,Light Rain,320,2014-05-13 18:54:00
2:54 PM,57.0,53.1,87,30.09,10.0,WNW,11.5,-,0.01,Rain,Light Rain,290,2014-05-13 19:54:00
3:54 PM,55.0,51.1,86,30.10,9.0,WNW,13.8,-,0.00,Rain,Light Rain,300,2014-05-13 20:54:00
4:54 PM,55.9,51.1,84,30.11,10.0,WNW,12.7,-,0.01,,Overcast,300,2014-05-13 21:54:00
5:54 PM,55.0,50.0,83,30.12,10.0,WNW,10.4,-,N/A,,Overcast,300,2014-05-13 22:54:00
6:54 PM,55.0,48.0,77,30.12,10.0,WNW,11.5,-,N/A,,Overcast,300,2014-05-13 23:54:00
7:54 PM,54.0,48.0,80,30.14,10.0,NW,10.4,-,N/A,,Overcast,310,2014-05-14 00:54:00
8:54 PM,53.1,46.9,80,30.16,10.0,NW,10.4,18.4,0.00,Rain,Light Rain,320,2014-05-14 01:54:00
9:54 PM,53.1,46.0,77,30.18,10.0,NW,12.7,-,0.00,,Overcast,320,2014-05-14 02:54:00
10:54 PM,53.1,45.0,74,30.20,10.0,North,8.1,-,N/A,,Mostly Cloudy,360,2014-05-14 03:54:00
11:02 PM,53.1,45.0,74,30.19,10.0,North,8.1,-,N/A,,Scattered Clouds,360,2014-05-14 04:02:00
11:54 PM,53.1,46.0,77,30.21,10.0,WNW,6.9,-,N/A,,Partly Cloudy,290,2014-05-14 04:54:00